This is the latest recevied weather packets stored in our database for station/object K1RFS. If no packets are shown the sender has not sent any weather packets the latest 10 day(s).
| Time | Temp. | Humidity | Pressure | Rain* | Wind** | Luminosity | Snow |
|---|---|---|---|---|---|---|---|
| 1787618152 | 28.89° C | 27% | 1005.6 hPa | 0 mm | - | 17 W/m² | - |
| 1787617847 | 28.89° C | 26% | 1005.8 hPa | 0 mm | - | 18 W/m² | - |
| 1787617543 | 28.89° C | 31% | 1005.5 hPa | 0 mm | - | 23 W/m² | - |
| 1787617242 | 28.89° C | 28% | 1005.6 hPa | 0 mm | - | 15 W/m² | - |
| 1787616972 | 28.33° C | 27% | 1005.4 hPa | 0 mm | - | 13 W/m² | - |
| 1787616636 | 28.89° C | 29% | 1005.3 hPa | 0 mm | - | 16 W/m² | - |
| 1787616335 | 28.89° C | 31% | 1005.4 hPa | 0 mm | - | 23 W/m² | - |
| 1787616033 | 29.44° C | 29% | 1005.3 hPa | 0 mm | - | 36 W/m² | - |
| 1787615729 | 30° C | 27% | 1005.4 hPa | 0 mm | - | 57 W/m² | - |
| 1787615428 | 30° C | 26% | 1005.3 hPa | 0 mm | - | 72 W/m² | - |
| 1787615125 | 30° C | 25% | 1005 hPa | 0 mm | - | 72 W/m² | - |
| 1787614820 | 30.56° C | 25% | 1005.2 hPa | 0 mm | - | 107 W/m² | - |
| 1787614517 | 30.56° C | 25% | 1004.9 hPa | 0 mm | - | 123 W/m² | - |
| 1787614214 | 30.56° C | 23% | 1004.9 hPa | 0 mm | - | 127 W/m² | - |
| 1787613910 | 30° C | 25% | 1004.9 hPa | 0 mm | - | 129 W/m² | - |
| 1787613606 | 30° C | 27% | 1004.9 hPa | 0 mm | - | 102 W/m² | - |
| 1787613306 | 30° C | 21% | 1004.9 hPa | 0 mm | - | 67 W/m² | - |
| 1787613002 | 30° C | 25% | 1005.5 hPa | 0 mm | - | 49 W/m² | - |
| 1787612698 | 29.44° C | 26% | 1004.9 hPa | 0 mm | - | 49 W/m² | - |
| 1787612394 | 29.44° C | 28% | 1004.9 hPa | 1.27 mm | - | 58 W/m² | - |
| 1787612089 | 29.44° C | 26% | 1004.9 hPa | 1.27 mm | - | 63 W/m² | - |
| 1787611786 | 29.44° C | 28% | 1005.3 hPa | 0 mm | - | 77 W/m² | - |
| 1787611482 | 29.44° C | 34% | 1005.4 hPa | 0 mm | - | 76 W/m² | - |
| 1787611177 | 29.44° C | 35% | 1005.3 hPa | 0 mm | - | 82 W/m² | - |
| 1787610872 | 30° C | 34% | 1005.3 hPa | 0 mm | - | 101 W/m² | - |
* Rain latest hour (hover to see other rain measurements)
** Current wind speed in m/s (hover to see current wind gust speed)